Location: Newark
(48.6461°N, 4.3644°W)
Time: 20:44:34
(UTC+00:00)

A-11 Canister half - All Passes

Search period start: 22 January 2020 00:00
Search period end: 01 February 2020 00:00
Orbit: 1525 x 1684 km, 47.3° (Epoch: 22 January)

Date Brightness Start Highest point End Pass type
(mag) Time Alt. Az. Time Alt. Az. Time Alt. Az.
22 Jan - 01:59:18 10° W 02:07:07 28° SW 02:15:04 10° S night (unlit)
22 Jan - 17:20:39 10° S 17:28:13 29° SE 17:35:56 10° E visible
22 Jan - 19:22:43 10° SW 19:31:58 65° SSE 19:41:30 10° ENE visible
22 Jan - 21:27:15 10° W 21:36:48 84° S 21:46:42 10° E visible
22 Jan - 23:32:10 10° WNW 23:41:40 64° SSW 23:51:28 10° SE visible
23 Jan - 01:37:36 10° W 01:45:32 29° SW 01:53:39 10° S night (unlit)
23 Jan - 16:59:17 10° S 17:06:40 27° SE 17:14:13 10° E daylight
23 Jan - 19:01:10 10° SW 19:10:21 63° SSE 19:19:50 10° ENE visible
23 Jan - 21:05:38 10° W 21:15:09 84° S 21:25:01 10° E visible
23 Jan - 23:10:33 10° WNW 23:20:02 66° SSW 23:29:51 10° SE visible
24 Jan - 01:15:53 10° W 01:23:57 30° SW 01:32:13 10° SSE night (unlit)
24 Jan - 16:37:55 10° S 16:45:08 26° SE 16:52:28 10° E daylight
24 Jan - 18:39:35 10° SW 18:48:44 62° SSE 18:58:11 10° ENE visible
24 Jan - 20:44:00 10° W 20:53:30 84° S 21:03:21 10° E visible
24 Jan - 22:48:55 10° WNW 22:58:24 67° SSW 23:08:13 10° ESE visible
25 Jan - 00:54:12 10° W 01:02:22 32° SW 01:10:45 10° SSE night (unlit)
25 Jan - 16:16:34 10° S 16:23:35 25° SE 16:30:44 10° E daylight
25 Jan - 18:18:02 10° SW 18:27:08 60° SSE 18:36:30 10° ENE visible
25 Jan - 20:22:23 10° W 20:31:51 84° S 20:41:40 10° E visible
25 Jan - 22:27:18 10° W 22:36:46 68° SSW 22:46:34 10° ESE visible
26 Jan - 00:32:31 10° WNW 00:40:47 33° SW 00:49:17 10° SSE visible
26 Jan - 15:55:14 10° S 16:02:04 23° SE 16:08:58 10° E daylight
26 Jan - 17:56:28 10° SW 18:05:32 58° SSE 18:14:51 10° ENE visible
26 Jan - 20:00:46 10° W 20:10:13 83° S 20:19:59 10° E visible
26 Jan - 22:05:40 10° W 22:15:08 70° SSW 22:24:56 10° ESE visible
27 Jan - 00:10:51 10° WNW 00:19:12 34° SW 00:27:48 10° SSE visible
27 Jan - 15:33:56 10° S 15:40:31 22° SE 15:47:11 10° E daylight
27 Jan - 17:34:55 10° SW 17:43:56 57° SSE 17:53:11 10° ENE visible
27 Jan - 19:39:08 10° W 19:48:34 83° S 19:58:19 10° E visible
27 Jan - 21:44:02 10° W 21:53:30 71° SSW 22:03:18 10° ESE visible
27 Jan - 23:49:10 10° WNW 23:57:37 36° SW 00:06:19 10° SSE visible
28 Jan - 15:12:38 10° S 15:19:00 21° SE 15:25:24 10° E daylight
28 Jan - 17:13:23 10° SW 17:22:21 55° SSE 17:31:31 10° ENE daylight
28 Jan - 19:17:31 10° W 19:26:56 83° S 19:36:39 10° E visible
28 Jan - 21:22:25 10° W 21:31:52 72° SSW 21:41:39 10° ESE visible
28 Jan - 23:27:31 10° WNW 23:36:02 37° SW 23:44:48 10° SSE visible
29 Jan - 14:51:22 10° S 14:57:28 20° SE 15:03:35 10° E daylight
29 Jan - 16:51:50 10° SW 17:00:45 53° SSE 17:09:51 10° ENE daylight
29 Jan - 18:55:55 10° WSW 19:05:17 82° S 19:14:58 10° E visible
29 Jan - 21:00:48 10° W 21:10:14 74° SSW 21:20:00 10° ESE visible
29 Jan - 23:05:51 10° WNW 23:14:27 39° SW 23:23:17 10° SSE visible
30 Jan - 01:15:10 10° WSW 01:17:20 11° WSW 01:19:31 10° SW night (unlit)
30 Jan - 14:30:08 10° SSE 14:35:56 19° SE 14:41:46 10° E daylight
30 Jan - 16:30:19 10° SW 16:39:09 51° SSE 16:48:12 10° ENE daylight
30 Jan - 18:34:17 10° WSW 18:43:39 81° S 18:53:18 10° E visible
30 Jan - 20:39:11 10° W 20:48:36 75° SSW 20:58:21 10° ESE visible
30 Jan - 22:44:12 10° WNW 22:52:52 40° SW 23:01:47 10° SSE visible
31 Jan - 00:52:44 10° WSW 00:55:49 12° WSW 00:58:55 10° SW night (unlit)
31 Jan - 14:08:55 10° SSE 14:14:24 17° SE 14:19:55 10° E daylight
31 Jan - 16:08:46 10° SW 16:17:35 50° SSE 16:26:32 10° ENE daylight
31 Jan - 18:12:40 10° WSW 18:22:01 81° S 18:31:38 10° E visible
31 Jan - 20:17:33 10° W 20:26:58 76° SSW 20:36:42 10° ESE visible
31 Jan - 22:22:33 10° WNW 22:31:16 42° SW 22:40:15 10° SSE visible
